Location: Monsanto
(38.0260°N, 122.0555°W)
Time: 15:08:10
(UTC+00:00)

ACS3 Solar Sail - Visible Passes

Search period start: 23 July 2024 00:00
Search period end: 02 August 2024 00:00
Orbit: 993 x 1022 km, 97.4° (Epoch: 23 July)

Date Brightness Start Highest point End Pass type
(mag) Time Alt. Az. Time Alt. Az. Time Alt. Az.
23 Jul 6.0 04:08:03 10° ESE 04:13:06 27° ENE 04:18:12 10° NNE visible
23 Jul 5.6 05:53:17 22° SSW 05:56:54 45° W 06:02:52 10° NNW visible
24 Jul 5.1 04:42:46 18° SE 04:47:13 51° ENE 04:53:15 10° N visible
24 Jul 6.6 06:28:07 15° SW 06:31:35 23° W 06:36:24 10° NW visible
25 Jul 4.8 05:17:36 24° S 05:21:33 84° WSW 05:27:50 10° NNW visible
25 Jul 7.3 07:05:31 10° W 07:06:29 10° W 07:07:27 10° WNW visible
26 Jul 5.9 04:07:06 10° ESE 04:12:13 28° ENE 04:17:23 10° NNE visible
26 Jul 5.7 05:52:26 22° SSW 05:56:03 43° W 06:01:58 10° NNW visible
27 Jul 5.1 04:41:55 19° SE 04:46:21 53° ENE 04:52:24 10° N visible
27 Jul 6.7 06:27:16 14° SW 06:30:44 22° W 06:35:28 10° NW visible
28 Jul 4.9 05:16:46 25° S 05:20:40 82° WSW 05:26:58 10° NNW visible
29 Jul 5.9 04:06:15 10° ESE 04:11:19 29° ENE 04:16:33 10° N visible
29 Jul 5.8 05:51:36 22° SSW 05:55:11 42° W 06:01:05 10° NNW visible
30 Jul 5.1 04:41:05 19° SE 04:45:27 55° ENE 04:51:33 10° N visible
30 Jul 6.7 06:26:26 14° SW 06:29:53 21° W 06:34:32 10° NW visible
31 Jul 4.9 05:15:56 25° S 05:19:47 79° WSW 05:26:06 10° NNW visible
01 Aug 5.8 04:05:25 11° SE 04:10:26 30° ENE 04:15:44 10° N visible
01 Aug 5.8 05:50:46 22° SSW 05:54:19 41° W 06:00:12 10° NNW visible
